Time,TemperatureF,DewpointF,PressureIn,WindDirection,WindDirectionDegrees,WindSpeedMPH,WindSpeedGustMPH,Humidity,HourlyPrecipIn,Conditions,Clouds,dailyrainin,SoftwareType,DateUTC
2013-01-23 00:03:00,15.0,-1.0,30.15,WNW,296,7.0,-999.0,49,-99.99,,,-99.99,,2013-01-23 05:03:00,
2013-01-23 00:12:00,15.0,-1.0,30.15,WNW,296,7.0,-999.0,49,-99.99,,,-99.99,,2013-01-23 05:12:00,
2013-01-23 00:23:00,14.0,-1.0,30.14,WNW,300,5.0,-999.0,50,-99.99,,,-99.99,,2013-01-23 05:23:00,
2013-01-23 00:33:00,14.0,-1.0,30.14,WNW,286,4.0,-999.0,51,-99.99,,,-99.99,,2013-01-23 05:33:00,
2013-01-23 00:43:00,14.0,-1.0,30.14,WNW,286,4.0,-999.0,51,-99.99,,,-99.99,,2013-01-23 05:43:00,
2013-01-23 00:52:00,14.0,-1.0,30.13,NW,315,5.0,-999.0,50,-99.99,,,-99.99,,2013-01-23 05:52:00,
2013-01-23 01:03:00,14.0,-1.0,30.14,West,275,4.0,-999.0,51,-99.99,,,-99.99,,2013-01-23 06:03:00,
2013-01-23 01:13:00,14.0,-1.0,30.14,West,275,4.0,-999.0,51,-99.99,,,-99.99,,2013-01-23 06:13:00,
2013-01-23 01:22:00,14.0,0.0,30.14,West,266,6.0,-999.0,52,-99.99,,,-99.99,,2013-01-23 06:22:00,
2013-01-23 01:33:00,14.0,0.0,30.13,West,279,3.0,-999.0,53,-99.99,,,-99.99,,2013-01-23 06:33:00,
2013-01-23 01:43:00,14.0,0.0,30.13,West,279,3.0,-999.0,53,-99.99,,,-99.99,,2013-01-23 06:43:00,
2013-01-23 01:52:00,14.0,0.0,30.13,WNW,289,3.0,-999.0,53,-99.99,,,-99.99,,2013-01-23 06:52:00,
2013-01-23 02:02:00,14.0,0.0,30.14,WSW,251,3.0,-999.0,53,-99.99,,,-99.99,,2013-01-23 07:02:00,
2013-01-23 02:13:00,14.0,0.0,30.14,WSW,251,3.0,-999.0,53,-99.99,,,-99.99,,2013-01-23 07:13:00,
2013-01-23 02:23:00,14.0,0.0,30.14,WNW,283,3.0,-999.0,54,-99.99,,,-99.99,,2013-01-23 07:23:00,
2013-01-23 02:33:00,14.0,0.0,30.15,West,273,5.0,-999.0,53,-99.99,,,-99.99,,2013-01-23 07:33:00,
2013-01-23 02:43:00,14.0,0.0,30.15,West,273,5.0,-999.0,53,-99.99,,,-99.99,,2013-01-23 07:43:00,
2013-01-23 02:52:00,13.0,0.0,30.15,WSW,252,2.0,-999.0,54,-99.99,,,-99.99,,2013-01-23 07:52:00,
2013-01-23 03:02:00,13.0,0.0,30.15,WSW,254,1.0,-999.0,55,-99.99,,,-99.99,,2013-01-23 08:02:00,
2013-01-23 03:13:00,13.0,0.0,30.15,WSW,254,1.0,-999.0,55,-99.99,,,-99.99,,2013-01-23 08:13:00,
2013-01-23 03:23:00,13.0,0.0,30.16,WNW,291,3.0,-999.0,55,-99.99,,,-99.99,,2013-01-23 08:23:00,
2013-01-23 03:33:00,13.0,0.0,30.15,NW,310,4.0,-999.0,55,-99.99,,,-99.99,,2013-01-23 08:33:00,
2013-01-23 03:43:00,13.0,0.0,30.15,NW,310,4.0,-999.0,55,-99.99,,,-99.99,,2013-01-23 08:43:00,
2013-01-23 03:53:00,13.0,0.0,30.15,West,279,3.0,-999.0,55,-99.99,,,-99.99,,2013-01-23 08:53:00,
2013-01-23 04:03:00,13.0,0.0,30.15,West,279,3.0,-999.0,55,-99.99,,,-99.99,,2013-01-23 09:03:00,
2013-01-23 04:12:00,13.0,0.0,30.15,West,279,3.0,-999.0,55,-99.99,,,-99.99,,2013-01-23 09:12:00,
2013-01-23 04:22:00,13.0,1.0,30.14,WNW,288,2.0,-999.0,57,-99.99,,,-99.99,,2013-01-23 09:22:00,
2013-01-23 04:33:00,13.0,1.0,30.14,West,263,3.0,-999.0,57,-99.99,,,-99.99,,2013-01-23 09:33:00,
2013-01-23 04:43:00,13.0,1.0,30.14,West,263,3.0,-999.0,57,-99.99,,,-99.99,,2013-01-23 09:43:00,
2013-01-23 04:53:00,13.0,1.0,30.14,West,267,2.0,-999.0,58,-99.99,,,-99.99,,2013-01-23 09:53:00,
2013-01-23 05:03:00,12.0,0.0,30.15,West,276,1.0,-999.0,59,-99.99,,,-99.99,,2013-01-23 10:03:00,
2013-01-23 05:12:00,12.0,0.0,30.15,West,276,1.0,-999.0,59,-99.99,,,-99.99,,2013-01-23 10:12:00,
2013-01-23 05:23:00,12.0,0.0,30.15,West,281,1.0,-999.0,59,-99.99,,,-99.99,,2013-01-23 10:23:00,
2013-01-23 05:33:00,12.0,1.0,30.15,WSW,258,2.0,-999.0,60,-99.99,,,-99.99,,2013-01-23 10:33:00,
2013-01-23 05:43:00,12.0,1.0,30.15,WSW,258,2.0,-999.0,60,-99.99,,,-99.99,,2013-01-23 10:43:00,
2013-01-23 05:52:00,12.0,1.0,30.15,West,272,2.0,-999.0,61,-99.99,,,-99.99,,2013-01-23 10:52:00,
2013-01-23 06:03:00,12.0,1.0,30.16,West,281,2.0,-999.0,61,-99.99,,,-99.99,,2013-01-23 11:03:00,
2013-01-23 06:12:00,12.0,1.0,30.16,West,281,2.0,-999.0,61,-99.99,,,-99.99,,2013-01-23 11:12:00,
2013-01-23 06:23:00,12.0,1.0,30.15,WSW,255,2.0,-999.0,61,-99.99,,,-99.99,,2013-01-23 11:23:00,
2013-01-23 06:34:00,12.0,1.0,30.15,WNW,296,2.0,-999.0,61,-99.99,,,-99.99,,2013-01-23 11:34:00,
2013-01-23 06:43:00,12.0,1.0,30.15,WNW,296,2.0,-999.0,61,-99.99,,,-99.99,,2013-01-23 11:43:00,
2013-01-23 06:53:00,12.0,1.0,30.16,WNW,285,4.0,-999.0,60,-99.99,,,-99.99,,2013-01-23 11:53:00,
2013-01-23 07:03:00,12.0,1.0,30.16,West,279,4.0,-999.0,60,-99.99,,,-99.99,,2013-01-23 12:03:00,
2013-01-23 07:13:00,12.0,1.0,30.16,West,279,4.0,-999.0,60,-99.99,,,-99.99,,2013-01-23 12:13:00,
2013-01-23 07:22:00,12.0,1.0,30.16,West,269,3.0,-999.0,61,-99.99,,,-99.99,,2013-01-23 12:22:00,
2013-01-23 07:33:00,12.0,2.0,30.16,WNW,288,2.0,-999.0,62,-99.99,,,-99.99,,2013-01-23 12:33:00,
2013-01-23 07:43:00,12.0,2.0,30.16,WNW,288,2.0,-999.0,62,-99.99,,,-99.99,,2013-01-23 12:43:00,
2013-01-23 07:53:00,12.0,2.0,30.17,West,280,2.0,-999.0,62,-99.99,,,-99.99,,2013-01-23 12:53:00,
2013-01-23 08:04:00,12.0,2.0,30.17,WNW,286,1.0,-999.0,62,-99.99,,,-99.99,,2013-01-23 13:04:00,
2013-01-23 08:13:00,12.0,2.0,30.17,WNW,286,1.0,-999.0,62,-99.99,,,-99.99,,2013-01-23 13:13:00,
2013-01-23 08:23:00,12.0,2.0,30.17,West,267,2.0,-999.0,62,-99.99,,,-99.99,,2013-01-23 13:23:00,
2013-01-23 08:33:00,13.0,2.0,30.17,West,279,3.0,-999.0,61,-99.99,,,-99.99,,2013-01-23 13:33:00,
2013-01-23 08:43:00,13.0,2.0,30.17,West,279,3.0,-999.0,61,-99.99,,,-99.99,,2013-01-23 13:43:00,
2013-01-23 08:52:00,13.0,2.0,30.17,West,280,3.0,-999.0,61,-99.99,,,-99.99,,2013-01-23 13:52:00,
2013-01-23 09:03:00,13.0,2.0,30.17,West,280,3.0,-999.0,61,-99.99,,,-99.99,,2013-01-23 14:03:00,
2013-01-23 09:12:00,13.0,2.0,30.17,West,280,3.0,-999.0,61,-99.99,,,-99.99,,2013-01-23 14:12:00,
2013-01-23 09:23:00,14.0,2.0,30.18,WNW,292,6.0,-999.0,58,-99.99,,,-99.99,,2013-01-23 14:23:00,
2013-01-23 09:33:00,15.0,3.0,30.18,WNW,290,6.0,-999.0,58,-99.99,,,-99.99,,2013-01-23 14:33:00,
2013-01-23 09:43:00,15.0,3.0,30.18,WNW,290,6.0,-999.0,58,-99.99,,,-99.99,,2013-01-23 14:43:00,
2013-01-23 09:53:00,15.0,3.0,30.18,West,277,5.0,-999.0,57,-99.99,,,-99.99,,2013-01-23 14:53:00,
2013-01-23 10:03:00,15.0,2.0,30.18,West,269,5.0,-999.0,56,-99.99,,,-99.99,,2013-01-23 15:03:00,
2013-01-23 10:13:00,15.0,2.0,30.18,West,269,5.0,-999.0,56,-99.99,,,-99.99,,2013-01-23 15:13:00,
2013-01-23 10:23:00,16.0,3.0,30.19,West,278,5.0,-999.0,55,-99.99,,,-99.99,,2013-01-23 15:23:00,
2013-01-23 10:33:00,16.0,3.0,30.19,West,278,5.0,-999.0,55,-99.99,,,-99.99,,2013-01-23 15:33:00,
2013-01-23 10:43:00,16.0,3.0,30.19,West,278,5.0,-999.0,55,-99.99,,,-99.99,,2013-01-23 15:43:00,
2013-01-23 10:53:00,17.0,4.0,30.18,WNW,302,7.0,-999.0,55,-99.99,,,-99.99,,2013-01-23 15:53:00,
2013-01-23 11:03:00,17.0,4.0,30.18,West,275,5.0,-999.0,55,-99.99,,,-99.99,,2013-01-23 16:03:00,
2013-01-23 11:12:00,17.0,4.0,30.18,West,275,5.0,-999.0,55,-99.99,,,-99.99,,2013-01-23 16:12:00,
2013-01-23 11:23:00,17.0,4.0,30.18,West,275,5.0,-999.0,55,-99.99,,,-99.99,,2013-01-23 16:23:00,
2013-01-23 11:33:00,18.0,2.0,30.18,West,275,6.0,-999.0,49,-99.99,,,-99.99,,2013-01-23 16:33:00,
2013-01-23 11:43:00,18.0,2.0,30.18,West,275,6.0,-999.0,49,-99.99,,,-99.99,,2013-01-23 16:43:00,
2013-01-23 11:53:00,18.0,2.0,30.16,West,265,7.0,-999.0,49,-99.99,,,-99.99,,2013-01-23 16:53:00,
2013-01-23 12:03:00,18.0,3.0,30.15,NW,305,6.0,-999.0,50,-99.99,,,-99.99,,2013-01-23 17:03:00,
2013-01-23 12:13:00,18.0,3.0,30.15,NW,305,6.0,-999.0,50,-99.99,,,-99.99,,2013-01-23 17:13:00,
2013-01-23 12:23:00,19.0,3.0,30.14,WNW,294,3.0,-999.0,49,-99.99,,,-99.99,,2013-01-23 17:23:00,
2013-01-23 12:34:00,19.0,2.0,30.13,WNW,284,7.0,-999.0,47,-99.99,,,-99.99,,2013-01-23 17:34:00,
2013-01-23 12:43:00,19.0,2.0,30.13,WNW,284,7.0,-999.0,47,-99.99,,,-99.99,,2013-01-23 17:43:00,
2013-01-23 12:53:00,18.0,2.0,30.12,WNW,295,7.0,-999.0,49,-99.99,,,-99.99,,2013-01-23 17:53:00,
2013-01-23 13:04:00,18.0,3.0,30.11,NNE,12,5.0,-999.0,50,-99.99,,,-99.99,,2013-01-23 18:04:00,
2013-01-23 13:12:00,18.0,3.0,30.11,NNE,12,5.0,-999.0,50,-99.99,,,-99.99,,2013-01-23 18:12:00,
2013-01-23 13:23:00,19.0,4.0,30.11,West,279,5.0,-999.0,52,-99.99,,,-99.99,,2013-01-23 18:23:00,
2013-01-23 13:33:00,19.0,4.0,30.11,West,279,5.0,-999.0,52,-99.99,,,-99.99,,2013-01-23 18:33:00,
2013-01-23 13:44:00,18.0,3.0,30.11,WNW,297,6.0,-999.0,50,-99.99,,,-99.99,,2013-01-23 18:44:00,
2013-01-23 13:53:00,19.0,6.0,30.10,NW,309,3.0,-999.0,55,-99.99,,,-99.99,,2013-01-23 18:53:00,
2013-01-23 14:03:00,19.0,3.0,30.10,West,277,5.0,-999.0,50,-99.99,,,-99.99,,2013-01-23 19:03:00,
2013-01-23 14:13:00,19.0,3.0,30.10,West,277,5.0,-999.0,50,-99.99,,,-99.99,,2013-01-23 19:13:00,
2013-01-23 14:23:00,20.0,3.0,30.10,WNW,292,6.0,-999.0,47,-99.99,,,-99.99,,2013-01-23 19:23:00,
2013-01-23 14:33:00,19.0,3.0,30.10,WSW,258,6.0,-999.0,50,-99.99,,,-99.99,,2013-01-23 19:33:00,
2013-01-23 14:43:00,19.0,3.0,30.10,WSW,258,6.0,-999.0,50,-99.99,,,-99.99,,2013-01-23 19:43:00,
2013-01-23 14:53:00,19.0,3.0,30.10,WSW,258,6.0,-999.0,50,-99.99,,,-99.99,,2013-01-23 19:53:00,
2013-01-23 15:03:00,20.0,3.0,30.10,WNW,298,4.0,-999.0,47,-99.99,,,-99.99,,2013-01-23 20:03:00,
2013-01-23 15:13:00,20.0,3.0,30.10,WNW,298,4.0,-999.0,47,-99.99,,,-99.99,,2013-01-23 20:13:00,
2013-01-23 15:23:00,20.0,4.0,30.10,WSW,251,8.0,-999.0,50,-99.99,,,-99.99,,2013-01-23 20:23:00,
2013-01-23 15:33:00,19.0,3.0,30.10,West,273,4.0,-999.0,50,-99.99,,,-99.99,,2013-01-23 20:33:00,
2013-01-23 15:43:00,19.0,3.0,30.10,West,273,4.0,-999.0,50,-99.99,,,-99.99,,2013-01-23 20:43:00,
2013-01-23 15:53:00,20.0,5.0,30.10,NNW,330,5.0,-999.0,51,-99.99,,,-99.99,,2013-01-23 20:53:00,
2013-01-23 16:03:00,20.0,5.0,30.10,West,269,3.0,-999.0,52,-99.99,,,-99.99,,2013-01-23 21:03:00,
2013-01-23 16:12:00,20.0,5.0,30.10,West,269,3.0,-999.0,52,-99.99,,,-99.99,,2013-01-23 21:12:00,
2013-01-23 16:23:00,20.0,3.0,30.10,WNW,291,7.0,-999.0,47,-99.99,,,-99.99,,2013-01-23 21:23:00,
2013-01-23 16:33:00,20.0,5.0,30.10,NW,317,5.0,-999.0,51,-99.99,,,-99.99,,2013-01-23 21:33:00,
2013-01-23 16:43:00,20.0,5.0,30.10,NW,317,5.0,-999.0,51,-99.99,,,-99.99,,2013-01-23 21:43:00,
2013-01-23 16:53:00,19.0,5.0,30.10,WNW,284,4.0,-999.0,53,-99.99,,,-99.99,,2013-01-23 21:53:00,
2013-01-23 17:03:00,19.0,5.0,30.10,WNW,294,5.0,-999.0,53,-99.99,,,-99.99,,2013-01-23 22:03:00,
2013-01-23 17:13:00,19.0,5.0,30.10,WNW,294,5.0,-999.0,53,-99.99,,,-99.99,,2013-01-23 22:13:00,
2013-01-23 17:23:00,19.0,6.0,30.11,West,263,3.0,-999.0,55,-99.99,,,-99.99,,2013-01-23 22:23:00,
2013-01-23 17:33:00,18.0,5.0,30.11,West,273,3.0,-999.0,55,-99.99,,,-99.99,,2013-01-23 22:33:00,
2013-01-23 17:43:00,18.0,5.0,30.11,West,273,3.0,-999.0,55,-99.99,,,-99.99,,2013-01-23 22:43:00,
2013-01-23 17:53:00,18.0,5.0,30.11,West,273,1.0,-999.0,56,-99.99,,,-99.99,,2013-01-23 22:53:00,
2013-01-23 18:03:00,18.0,5.0,30.11,West,275,0.0,-999.0,57,-99.99,,,-99.99,,2013-01-23 23:03:00,
2013-01-23 18:13:00,18.0,5.0,30.11,West,275,0.0,-999.0,57,-99.99,,,-99.99,,2013-01-23 23:13:00,
2013-01-23 18:23:00,18.0,5.0,30.11,West,280,2.0,-999.0,55,-99.99,,,-99.99,,2013-01-23 23:23:00,
2013-01-23 18:33:00,18.0,5.0,30.11,WNW,286,2.0,-999.0,55,-99.99,,,-99.99,,2013-01-23 23:33:00,
2013-01-23 18:43:00,18.0,5.0,30.11,WNW,286,2.0,-999.0,55,-99.99,,,-99.99,,2013-01-23 23:43:00,
2013-01-23 18:53:00,18.0,5.0,30.12,West,281,1.0,-999.0,55,-99.99,,,-99.99,,2013-01-23 23:53:00,
2013-01-23 19:03:00,18.0,5.0,30.11,West,281,1.0,-999.0,57,-99.99,,,-99.99,,2013-01-24 00:03:00,
2013-01-23 19:12:00,18.0,5.0,30.11,West,281,1.0,-999.0,57,-99.99,,,-99.99,,2013-01-24 00:12:00,
2013-01-23 19:22:00,17.0,5.0,30.12,West,281,0.0,-999.0,58,-99.99,,,-99.99,,2013-01-24 00:22:00,
2013-01-23 19:33:00,17.0,5.0,30.11,West,281,0.0,-999.0,59,-99.99,,,-99.99,,2013-01-24 00:33:00,
2013-01-23 19:43:00,17.0,5.0,30.11,West,281,0.0,-999.0,59,-99.99,,,-99.99,,2013-01-24 00:43:00,
2013-01-23 19:53:00,16.0,5.0,30.10,West,281,0.0,-999.0,61,-99.99,,,-99.99,,2013-01-24 00:53:00,
2013-01-23 20:03:00,16.0,6.0,30.11,West,281,0.0,-999.0,63,-99.99,,,-99.99,,2013-01-24 01:03:00,
2013-01-23 20:12:00,16.0,6.0,30.11,West,281,0.0,-999.0,63,-99.99,,,-99.99,,2013-01-24 01:12:00,
2013-01-23 20:23:00,16.0,6.0,30.11,West,281,0.0,-999.0,63,-99.99,,,-99.99,,2013-01-24 01:23:00,
2013-01-23 20:33:00,14.0,5.0,30.11,West,281,0.0,-999.0,67,-99.99,,,-99.99,,2013-01-24 01:33:00,
2013-01-23 20:43:00,14.0,5.0,30.11,West,281,0.0,-999.0,67,-99.99,,,-99.99,,2013-01-24 01:43:00,
2013-01-23 20:53:00,14.0,6.0,30.10,West,281,0.0,-999.0,70,-99.99,,,-99.99,,2013-01-24 01:53:00,
2013-01-23 21:03:00,14.0,6.0,30.10,West,281,0.0,-999.0,71,-99.99,,,-99.99,,2013-01-24 02:03:00,
2013-01-23 21:12:00,14.0,6.0,30.10,West,281,0.0,-999.0,71,-99.99,,,-99.99,,2013-01-24 02:12:00,
2013-01-23 21:23:00,13.0,6.0,30.10,West,281,0.0,-999.0,72,-99.99,,,-99.99,,2013-01-24 02:23:00,
2013-01-23 21:33:00,13.0,6.0,30.10,West,281,0.0,-999.0,73,-99.99,,,-99.99,,2013-01-24 02:33:00,
2013-01-23 21:42:00,13.0,6.0,30.10,West,281,0.0,-999.0,73,-99.99,,,-99.99,,2013-01-24 02:42:00,
2013-01-23 21:52:00,13.0,6.0,30.10,West,281,0.0,-999.0,73,-99.99,,,-99.99,,2013-01-24 02:52:00,
2013-01-23 22:03:00,13.0,7.0,30.11,West,281,0.0,-999.0,75,-99.99,,,-99.99,,2013-01-24 03:03:00,
2013-01-23 22:12:00,13.0,7.0,30.11,West,281,0.0,-999.0,75,-99.99,,,-99.99,,2013-01-24 03:12:00,
2013-01-23 22:22:00,13.0,7.0,30.11,West,281,0.0,-999.0,77,-99.99,,,-99.99,,2013-01-24 03:22:00,
2013-01-23 22:33:00,12.0,6.0,30.11,West,281,0.0,-999.0,77,-99.99,,,-99.99,,2013-01-24 03:33:00,
2013-01-23 22:43:00,12.0,6.0,30.11,West,281,0.0,-999.0,77,-99.99,,,-99.99,,2013-01-24 03:43:00,
2013-01-23 22:52:00,12.0,6.0,30.11,West,281,0.0,-999.0,78,-99.99,,,-99.99,,2013-01-24 03:52:00,
2013-01-23 23:03:00,12.0,7.0,30.11,West,281,0.0,-999.0,80,-99.99,,,-99.99,,2013-01-24 04:03:00,
2013-01-23 23:12:00,12.0,7.0,30.11,West,281,0.0,-999.0,80,-99.99,,,-99.99,,2013-01-24 04:12:00,
2013-01-23 23:22:00,12.0,7.0,30.10,West,281,0.0,-999.0,80,-99.99,,,-99.99,,2013-01-24 04:22:00,
2013-01-23 23:33:00,13.0,8.0,30.10,West,281,0.0,-999.0,81,-99.99,,,-99.99,,2013-01-24 04:33:00,
2013-01-23 23:43:00,13.0,8.0,30.10,West,281,0.0,-999.0,81,-99.99,,,-99.99,,2013-01-24 04:43:00,
2013-01-23 23:52:00,12.0,7.0,30.11,West,281,0.0,-999.0,81,-99.99,,,-99.99,,2013-01-24 04:52:00,